Regional Weather Roundup
Issued by NWS

Home | Current Version | Previous Version | Graphics & Text | Print | Product List | Glossary On
Versions: 1 2 3 4 5 6 7 8 9 10 11 12 13 14 15 16 17 18 19 20 21 22 23 24 25 26 27 28 29 30 31 32 33 34 35 36 37 38 39 40 41 42 43 44 45 46 47 48 49 50
000
ASUS43 KOAX 171910
RWRNE

WEATHER ROUNDUP FOR NEBRASKA
NATIONAL WEATHER SERVICE OMAHA NE
100 PM CST FRI NOV 17 2017

NOTES: SATELLITE DATA IS BEING USED TO AUGMENT CLOUD COVER ABOVE
       12000 FEET.
       "FAIR" INDICATES FEW OR NO CLOUDS BELOW 12,000 FEET WITH NO
       SIGNIFICANT WEATHER AND/OR OBSTRUCTIONS TO VISIBILITY.


NEZ001>004-019>022-054>056-172000-
NEBRASKA PANHANDLE

CITY           SKY/WX    TMP DP  RH WIND       PRES   REMARKS
SCOTTSBLUFF    PTSUNNY   50  28  42 VRB7      29.61F
ALLIANCE       PTSUNNY   48  30  49 SE8       29.61F
CHADRON        CLOUDY    43  34  70 N10       29.65F
GORDON         CLOUDY    44  28  54 E7        29.63F
KIMBALL        PTSUNNY   50  32  50 CALM      29.62F
SIDNEY         CLOUDY    50  30  46 E8        29.61F
$$

NEZ057>060-069>072-079>082-172000-
SOUTHWEST NEBRASKA

CITY           SKY/WX    TMP DP  RH WIND       PRES   REMARKS
NORTH PLATTE   MOSUNNY   54  32  43 N17G28    29.59F
LEXINGTON      CLOUDY    56  34  44 N15G21    29.56F
MCCOOK         SUNNY     62  36  37 N8        29.55F
OGALLALA       CLOUDY    55  31  40 NE12      29.60F
$$

NEZ005>010-023>029-035>040-094-172000-
NORTH CENTRAL NEBRASKA

CITY           SKY/WX    TMP DP  RH WIND       PRES   REMARKS
VALENTINE      PTSUNNY   48  33  56 NE7       29.63F
AINSWORTH      MOSUNNY   48  32  54 NE13G18   29.61F
BROKEN BOW     CLOUDY    47  32  56 N24       29.58F
O`NEILL        CLOUDY    45  34  65 N12       29.62F
ORD            CLOUDY    49  34  56 N18G28    29.58S
THEDFORD       CLOUDY    50  32  49 NE14      29.61F
$$

NEZ041-046>049-061>064-073>077-083>087-172000-
SOUTH CENTRAL NEBRASKA

CITY           SKY/WX    TMP DP  RH WIND       PRES   REMARKS
GRAND ISLAND   SUNNY     56  45  66 N9        29.54F
AURORA         PTSUNNY   55  47  74 NW9       29.54F
HASTINGS       SUNNY     57  44  62 N12       29.53F
HEBRON         SUNNY     65  49  56 NW6       29.51F
HOLDREGE       CLOUDY    58  39  49 N13       29.53F
KEARNEY        CLOUDY    57  36  45 N17       29.54F
YORK           CLOUDY    55  50  82 NW8       29.54S
$$

NEZ011>018-030>034-042>045-172000-
NORTHEAST NEBRASKA

CITY           SKY/WX    TMP DP  RH WIND       PRES   REMARKS
NORFOLK        CLOUDY    51  35  54 NW17      29.53F
ALBION         CLOUDY    51  36  55 NW16      29.58R
BLAIR          CLOUDY    58  54  84 S7        29.52F HAZE
COLUMBUS       CLOUDY    57  48  72 W12       29.55F
FREMONT        CLOUDY    60  51  74 CALM      29.52F
TEKAMAH        CLOUDY    60  51  72 SW8       29.52F
WAYNE          CLOUDY    54  34  47 NW16G22   29.55S
$$

NEZ050>053-065>068-078-088>093-172000-
SOUTHEAST NEBRASKA

CITY           SKY/WX    TMP DP  RH WIND       PRES   REMARKS
LINCOLN        CLOUDY    64  52  64 SW6       29.52F
OMAHA EPPLEY   CLOUDY    56  51  84 SE8       29.52F FOG
BEATRICE       SUNNY     68  53  59 SW7       29.50F
FALLS CITY     CLOUDY    63  56  78 S13       29.53F
NEBRASKA CITY  CLOUDY    62  59  89 S13       29.52F
PLATTSMOUTH    CLOUDY    59  56  88 SE7       29.52F FOG
$$

NEZ044-045-051>053-067-172000-
OMAHA AREA

CITY           SKY/WX    TMP DP  RH WIND       PRES   REMARKS
OMAHA EPPLEY   CLOUDY    56  51  84 SE8       29.52F FOG
BLAIR          CLOUDY    58  54  84 S7        29.52F HAZE
FREMONT        CLOUDY    60  51  74 CALM      29.52F
MILLARD        CLOUDY    62  55  80 S5        29.52F
PLATTSMOUTH    CLOUDY    59  56  88 SE7       29.52F FOG
WAHOO          CLOUDY    61  51  70 W5        29.52F
$$




USA.gov is the U.S. government's official web portal to all federal, state and local government web resources and services.